Hourly Weather Ch'ŏngjin

Today, 17 May, Monday

Time Temperature Precipitation Wind Pressure Humidity
00:00 +15°C° 0 mm 2 mps 752 mmHg 49%
01:00 +16°C° 0 mm 2 mps 752 mmHg 49%
02:00 +16°C° 0 mm 2 mps 752 mmHg 49%
03:00 +16°C° 0 mm 3 mps 752 mmHg 49%
04:00 +16°C° 0 mm 3 mps 752 mmHg 51%
05:00 +16°C° 0 mm 3 mps 753 mmHg 54%
06:00 +16°C° 0 mm 3 mps 753 mmHg 56%
07:00 +18°C° 0 mm 2 mps 753 mmHg 50%
08:00 +20°C° 0 mm 2 mps 753 mmHg 43%
09:00 +23°C° 0 mm 2 mps 753 mmHg 37%
10:00 +24°C° 0 mm 2 mps 753 mmHg 34%
11:00 +24°C° 0 mm 2 mps 753 mmHg 31%
12:00 +25°C° 0 mm 2 mps 753 mmHg 28%
13:00 +25°C° 0 mm 3 mps 753 mmHg 30%
14:00 +24°C° 0 mm 3 mps 753 mmHg 32%
15:00 +24°C° 0 mm 3 mps 753 mmHg 33%
16:00 +22°C° 0 mm 3 mps 753 mmHg 38%
17:00 +21°C° 0 mm 3 mps 753 mmHg 42%
18:00 +20°C° 0 mm 2 mps 753 mmHg 47%
19:00 +19°C° 0 mm 2 mps 754 mmHg 48%
20:00 +18°C° 0 mm 2 mps 754 mmHg 50%
21:00 +16°C° 0 mm 2 mps 754 mmHg 52%
22:00 +16°C° 0 mm 2 mps 754 mmHg 50%
23:00 +16°C° 0 mm 2 mps 755 mmHg 48%

Tomorrow, 18 May, Tuesday

Time Temperature Precipitation Wind Pressure Humidity
00:00 +16°C° 0 mm 2 mps 755 mmHg 46%
01:00 +16°C° 0 mm 2 mps 755 mmHg 46%
02:00 +16°C° 0 mm 2 mps 755 mmHg 45%
03:00 +15°C° 0 mm 2 mps 755 mmHg 44%
04:00 +16°C° 0 mm 2 mps 755 mmHg 45%
05:00 +16°C° 0 mm 2 mps 755 mmHg 46%
06:00 +16°C° 0 mm 2 mps 755 mmHg 47%
07:00 +18°C° 0 mm 2 mps 755 mmHg 43%
08:00 +20°C° 0 mm 2 mps 756 mmHg 39%
09:00 +24°C° 0 mm 2 mps 756 mmHg 35%
10:00 +24°C° 0 mm 2 mps 756 mmHg 36%
11:00 +24°C° 0 mm 2 mps 755 mmHg 37%
12:00 +24°C° 0 mm 3 mps 755 mmHg 38%
13:00 +24°C° 0 mm 3 mps 755 mmHg 39%
14:00 +24°C° 0 mm 3 mps 755 mmHg 41%
15:00 +24°C° 0 mm 3 mps 755 mmHg 42%
16:00 +23°C° 0 mm 2 mps 755 mmHg 47%
17:00 +21°C° 0 mm 2 mps 754 mmHg 52%
18:00 +20°C° 0 mm 2 mps 754 mmHg 57%
19:00 +18°C° 0 mm 2 mps 755 mmHg 63%
20:00 +17°C° 0 mm 2 mps 755 mmHg 69%
21:00 +15°C° 0 mm 2 mps 755 mmHg 75%
22:00 +15°C° 0 mm 2 mps 755 mmHg 75%
23:00 +15°C° 0 mm 1 mps 755 mmHg 74%

Day after tomorrow, 19 May, Wednesday

Time Temperature Precipitation Wind Pressure Humidity
00:00 +14°C° 0 mm 1 mps 755 mmHg 74%
01:00 +14°C° 0.1 mm 1 mps 755 mmHg 75%
02:00 +14°C° 0.1 mm 1 mps 755 mmHg 75%
03:00 +14°C° 0.1 mm 2 mps 755 mmHg 75%
04:00 +14°C° 0 mm 2 mps 755 mmHg 74%
05:00 +15°C° 0 mm 2 mps 755 mmHg 73%
06:00 +15°C° 0 mm 2 mps 755 mmHg 72%
07:00 +17°C° 0 mm 2 mps 755 mmHg 66%
08:00 +19°C° 0 mm 2 mps 755 mmHg 61%
09:00 +21°C° 0 mm 2 mps 755 mmHg 56%
10:00 +23°C° 0 mm 2 mps 755 mmHg 53%
11:00 +24°C° 0 mm 2 mps 755 mmHg 51%
12:00 +24°C° 0 mm 2 mps 755 mmHg 49%
13:00 +24°C° 0 mm 2 mps 755 mmHg 49%
14:00 +24°C° 0 mm 2 mps 755 mmHg 49%
15:00 +24°C° 0 mm 2 mps 755 mmHg 49%
16:00 +23°C° 0.2 mm 2 mps 755 mmHg 55%
17:00 +22°C° 0.2 mm 1 mps 755 mmHg 61%
18:00 +21°C° 0.2 mm 1 mps 755 mmHg 67%
19:00 +20°C° 0 mm 1 mps 755 mmHg 69%
20:00 +19°C° 0 mm 1 mps 756 mmHg 71%
21:00 +18°C° 0 mm 1 mps 756 mmHg 74%
22:00 +18°C° 0 mm 1 mps 756 mmHg 73%
23:00 +18°C° 0 mm 1 mps 756 mmHg 71%

20 May, Thursday

Time Temperature Precipitation Wind Pressure Humidity
00:00 +17°C° 0 mm 2 mps 757 mmHg 70%
01:00 +17°C° 0 mm 2 mps 757 mmHg 69%
02:00 +17°C° 0 mm 2 mps 757 mmHg 68%
03:00 +17°C° 0 mm 2 mps 757 mmHg 67%
04:00 +17°C° 0 mm 2 mps 757 mmHg 66%
05:00 +18°C° 0 mm 1 mps 758 mmHg 66%
06:00 +18°C° 0 mm 1 mps 758 mmHg 66%
07:00 +19°C° 0 mm 1 mps 758 mmHg 62%
08:00 +21°C° 0 mm 1 mps 758 mmHg 58%
09:00 +23°C° 0 mm 1 mps 758 mmHg 54%
10:00 +23°C° 0 mm 2 mps 758 mmHg 52%
11:00 +24°C° 0 mm 2 mps 757 mmHg 51%
12:00 +25°C° 0 mm 2 mps 757 mmHg 49%
13:00 +24°C° 0 mm 2 mps 757 mmHg 52%
14:00 +23°C° 0 mm 2 mps 757 mmHg 56%
15:00 +22°C° 0 mm 1 mps 757 mmHg 59%
16:00 +22°C° 0 mm 1 mps 756 mmHg 64%
17:00 +21°C° 0 mm 1 mps 756 mmHg 69%
18:00 +20°C° 0 mm 1 mps 756 mmHg 73%
19:00 +19°C° 0 mm 1 mps 756 mmHg 76%
20:00 +18°C° 0 mm 1 mps 756 mmHg 79%
21:00 +16°C° 0 mm 1 mps 756 mmHg 81%
22:00 +16°C° 0 mm 1 mps 756 mmHg 81%
23:00 +16°C° 0 mm 2 mps 756 mmHg 81%

21 May, Friday

Time Temperature Precipitation Wind Pressure Humidity
00:00 +16°C° 0 mm 2 mps 756 mmHg 81%
01:00 +15°C° 0 mm 2 mps 755 mmHg 81%
02:00 +15°C° 0 mm 2 mps 755 mmHg 82%
03:00 +15°C° 0 mm 2 mps 755 mmHg 83%
04:00 +14°C° 0.2 mm 2 mps 755 mmHg 86%
05:00 +14°C° 0.2 mm 2 mps 755 mmHg 89%
06:00 +14°C° 0.2 mm 2 mps 755 mmHg 92%
07:00 +14°C° 1 mm 2 mps 755 mmHg 91%
08:00 +14°C° 1 mm 2 mps 755 mmHg 91%
09:00 +14°C° 1 mm 2 mps 755 mmHg 90%
10:00 +13°C° 0.4 mm 3 mps 754 mmHg 90%
11:00 +14°C° 0.4 mm 3 mps 754 mmHg 90%
12:00 +14°C° 0.4 mm 3 mps 753 mmHg 90%
13:00 +14°C° 1.2 mm 4 mps 753 mmHg 90%
14:00 +14°C° 1.2 mm 4 mps 753 mmHg 91%
15:00 +14°C° 1.2 mm 4 mps 753 mmHg 91%
16:00 +14°C° 0.8 mm 4 mps 753 mmHg 91%
17:00 +14°C° 0.8 mm 5 mps 752 mmHg 91%
18:00 +14°C° 0.8 mm 5 mps 752 mmHg 91%
19:00 +14°C° 0.6 mm 5 mps 752 mmHg 91%
20:00 +14°C° 0.6 mm 4 mps 752 mmHg 91%
21:00 +13°C° 0.6 mm 3 mps 752 mmHg 92%
22:00 +14°C° 0.4 mm 3 mps 751 mmHg 91%
23:00 +14°C° 0.4 mm 3 mps 751 mmHg 91%

22 May, Saturday

Time Temperature Precipitation Wind Pressure Humidity
00:00 +15°C° 0.4 mm 2 mps 751 mmHg 91%
01:00 +15°C° 0.3 mm 2 mps 750 mmHg 91%
02:00 +15°C° 0.3 mm 2 mps 750 mmHg 90%
03:00 +15°C° 0.3 mm 2 mps 750 mmHg 90%
04:00 +15°C° 0.5 mm 2 mps 750 mmHg 90%
05:00 +15°C° 0.5 mm 2 mps 750 mmHg 91%
06:00 +15°C° 0.5 mm 2 mps 750 mmHg 91%
07:00 +15°C° 0.2 mm 2 mps 750 mmHg 90%
08:00 +15°C° 0.2 mm 2 mps 751 mmHg 90%
09:00 +15°C° 0.2 mm 1 mps 751 mmHg 89%
10:00 +16°C° 0.1 mm 1 mps 751 mmHg 87%
11:00 +16°C° 0.1 mm 1 mps 751 mmHg 85%
12:00 +18°C° 0.1 mm 1 mps 751 mmHg 84%
13:00 +19°C° 0 mm 1 mps 752 mmHg 80%
14:00 +19°C° 0 mm 1 mps 752 mmHg 77%
15:00 +20°C° 0 mm 1 mps 752 mmHg 74%
16:00 +19°C° 0 mm 1 mps 753 mmHg 78%
17:00 +18°C° 0 mm 1 mps 753 mmHg 83%
18:00 +18°C° 0 mm 1 mps 754 mmHg 87%
19:00 +16°C° 0 mm 1 mps 754 mmHg 90%
20:00 +15°C° 0 mm 1 mps 755 mmHg 93%
21:00 +14°C° 0 mm 1 mps 755 mmHg 96%
22:00 +14°C° 0 mm 1 mps 755 mmHg 95%
23:00 +14°C° 0 mm 1 mps 755 mmHg 94%
Show more

We Need Your Consent

Meteoprog and our Service Providers may store and access personal data such as cookies, device identifiers or other similar technologies on your device and process such data to personalise content and ads, as well as provide social media features and to analyse the traffic.

  • Store and/or access information on your device

    Cookies, device identifiers or other information can be stored or accessed on your device for the purposes indicated above.

  • Personalised ads and content, ad and content measurement, audience insights, and products development

    Ads and content can be personalised based on a profile. More data can be added to better personalise ads and content. Ad and content performance can be measured. Insights about the audience who saw the ads and content can be derived. Such data can be used to develop or improve user’s experience, systems and software.

By clicking ‘I Agree’ you will allow the use of indicated cookies, device identifiers, web beacons or other similar technologies. Your settings can be changed in the browser on your device.

For certain purposes, legitimate interests may be relied on, rather than consent. You can read more about this in our Privacy and Cookie Policy.